Weather in Bulun

Russia / Sakha (Yakutia) Republic     63°01′07″N   133°28′20″E
temp.,
°C
wind,
m/s
gust,
m/s
humid.,
%
clouds,
%
prec.,
mm/h
press.,
hPa
HPBL,
m
20 april, tue
tue2000:00−7wnw3796100 1.3 1011266
03:00−7w3696100 2.0 1010218
06:00−7w3695100 0.5 1009242
09:00−5w3593100 0.9 1008326
12:00−5w4793100 1.4 1009494
15:00−4w4692100 2.3 1010552
18:00−5w3693100 0.4 1012540
21:00−8w2694100 0.4 1014194
21 april, wed
wed2100:00−15wsw239961 0.0 101542
03:00−21sw2210092 0.0 101715
06:00−17wsw1499100 0.0 101878
09:00−9w248699 0.0 1018473
12:00−4wsw2375100 0.0 1019936
15:00−2wsw2368100 0.1 10191239
18:00−3w008480 0.1 102017
21:00−13e119646 0.1 102218
22 april, thu
thu2200:00−18ese1110075 0.0 102315
03:00−19e2210094 0.0 102321
06:00−13e2597100 0.0 102299
09:00−6e3488100 0.0 1021284
12:00−3ese3482100 0.0 1020654
15:00−2e3493100 0.6 1019553
18:00−3ne2497100 0.9 1018360
21:00−7wnw61291100 5.1 1021588
23 april, fri
fri2300:00−11w412885 0.0 1022401
03:00−13wsw399355 0.0 1024258
06:00−11wsw399499 0.0 1024440
09:00−7w3583100 0.1 1024894
12:00−4nnw1287100 0.3 1024722
15:00−3nne228294 0.6 1022650
18:00−5ne239046 0.0 1023339
21:00−16e119838 0.0 10239
24 april, sat
sat2400:00−19w10100100 0.0 10249
03:00−18w1199100 0.0 102410
06:00−14nw119792 0.1 102465
09:00−7nnw118982 0.1 1023278
12:00−3wnw12845 0.0 1023496
15:00−1wnw237899 0.0 1021778
18:00−2wnw1190100 0.0 102037
21:00−8sw1196100 0.0 101910